Regional Weather Roundup
Issued by NWS Portland, ME

Home | Current Version | Previous Version | Text Only | Print | Product List | Glossary On
Versions: 1 2 3 4 5 6 7 8 9 10 11 12 13 14 15 16 17 18 19 20 21 22 23 24 25 26 27 28 29 30 31 32 33 34 35 36 37 38 39 40 41 42 43 44 45 46 47 48 49 50
259
ASUS41 KGYX 251410
RWRGYX
WEATHER ROUNDUP FOR MAINE AND NEW HAMPSHIRE
NATIONAL WEATHER SERVICE GRAY ME
1000 AM EDT SAT MAR 25 2017

MEZ002-005-006-010-012-015-018-020-021-024-026-027-029-251500-
MAINE

CITY           SKY/WX    TMP DP  RH WIND       PRES   REMARKS
PORTLAND       CLOUDY    37  29  72 NE6       30.22S
SANFORD        CLOUDY    36  32  85 NE5       30.22R
BAR HARBOR     PTSUNNY   36  29  75 VRB5      30.21R
WISCASSET      CLOUDY    39  30  70 VRB5      30.24R
ROCKLAND       MOSUNNY   39  28  64 N9        30.21R
FRYEBURG       CLOUDY    33  31  92 CALM      30.21R
LEWISTONAUBURN CLOUDY    36  29  75 N8        30.22R
AUGUSTA        MOSUNNY   34  27  75 N10       30.22R
WATERVILLE     MOSUNNY   36  28  73 N9        30.19R
BANGOR         CLOUDY    35  29  78 NW8       30.21R
GREENVILLE       N/A     29  25  85 NW7       30.15R
MILLINOCKET    CLOUDY    35  25  66 NW9       30.21R
HOULTON        PTSUNNY   34  21  59 N16G22    30.15R
PRESQUE ISLE   MOSUNNY   31  13  47 NW18G29   30.19R WCI  19
FRENCHVILLE    SUNNY     26   2  35 N16G25    30.17R WCI  14
CARIBOU        SUNNY     31   9  39 NW15G22   30.17R
$$

NHZ002-005-008-009-011-012-014-251500-
NEW HAMPSHIRE

CITY           SKY/WX    TMP DP  RH WIND       PRES   REMARKS
PORTSMOUTH     CLOUDY    37  33  84 NE6       30.21R FOG
ROCHESTER      CLOUDY    36  33  89 CALM      30.21R
NASHUA         LGT RAIN  38  36  92 CALM      30.24R
MANCHESTER     LGT RAIN  38  31  76 N8        30.21R
CONCORD        CLOUDY    37  33  85 N3        30.22R
LACONIA        CLOUDY    36  34  92 SW3       30.21R
PLYMOUTH       CLOUDY    35  31  85 W5        30.21S
BERLIN         CLOUDY    34  25  69 N5        30.21S
WHITEFIELD     CLOUDY    34  27  75 N5        30.23R
JAFFREY        CLOUDY    37  34  89 CALM      30.18R
KEENE          LGT RAIN  37  34  87 N6        30.21R
LEBANON        CLOUDY    35  32  88 N5        30.23R
MT WASHINGTON  PTSUNNY   23  19  86 NW37        N/A  WCI   4
$$

VTZ005-007-008-251500-
VERMONT

CITY           SKY/WX    TMP DP  RH WIND       PRES   REMARKS
ST JOHNSBURY     N/A     34  29  82 MISG      30.24R
MONTPELIER     CLOUDY    31  30  96 NW3       30.28R
BURLINGTON     PTSUNNY   35  31  85 N8        30.28R
$$

MAZ007-012-024-CTZ003-RIZ002-NYZ038-NYZ072-251500-
SOUTHERN NEW ENGLAND AND NY

CITY           SKY/WX    TMP DP  RH WIND       PRES   REMARKS
BOSTON         CLOUDY    40  36  86 NE8       30.23R
WORCESTER      CLOUDY    38  34  85 NE5       30.17R
NANTUCKET      MOSUNNY   48  36  63 N18       30.16S
PROVIDENCE     CLOUDY    48  36  63 NE12      30.21R
HARTFORD       CLOUDY    43  35  73 N10       30.19R
ALBANY         CLOUDY    37  32  82 N10       30.23R
NEW YORK CITY  CLOUDY    56  38  50 NE7       30.15F
$$

ANZ081-ANZ082-ANZ150-NHZ014-MEZ023>029-251500-
COASTAL MARINE OBSERVATIONS

STATION/POSITION TIME  TEMP    WIND        PRES    WAVE
                       AIR SEA DIR/SP/G            HT/PER
                 (UTC) (F)     (DEG/KT/KT) (MB)    (FT/S)
MOUNT DESERT ROC 1400   35                 1022.7R
MATINICUS ROCK   1300   35     360/ 17/ 19 1022.3R
ISLE OF SHOALS   1300   38      50/  8/  9 1022.7R
JEFFREYS LEDGE   1306      41                N/A     2/ 6
CASHES LEDGE BUO 1250   38 40              1022.3    3/ 6
GEORGES BANK BUO 1250   42 40              1020.4    8/ 8
$$

.............KEY..............
   WCI - WIND CHILL
   TC  - TEMPERATURE IN CELSIUS
   VSB - VISIBILITY IN MILES
   HX  - HEAT INDEX
   FAIR- INDICATES FEW OR NO CLOUDS BELOW 12,000 FT, WITH NO
         SIGNIFICANT WEATHER AND/OR OBSTRUCTIONS TO VISIBILITY.






USA.gov is the U.S. government's official web portal to all federal, state and local government web resources and services.